カタログに戻る

EKRAN 2 DEB

運用中GEO
NORAD 29014·DEBRIS·🇷🇺 Russia

打ち上げ Sep 20, 1977 から Baikonur Cosmodrome

Loading…

TLE

最新Source: Space-Track

元期: Sep 14, 2026, 12:43 UTC

1 29014U 77092K   26257.53032872 -.00000343  00000-0  00000-0 0  9994
2 29014   3.9097 273.0391 0020477 348.4023  56.4639  1.00144057 48170

AllMySatでEKRAN 2 DEBをリアルタイム追跡

Download on the App Store